Keahole Point, HI

5:44 PM HST on July 25, 2017 (GMT -1000)
Kona International At Keahole

Weather History for PHKO - February, 2012

Change the Weather History Date:

Saturday, February 18, 2012

  Actual Average Record
Temperature  
Mean Temperature 76 °F -  
Max Temperature 81 °F 79 °F 86 °F (1984)
Min Temperature 71 °F 66 °F 61 °F (1986)
Cooling Degree Days 11    
Growing Degree Days 26 (Base 50)    
Moisture  
Dew Point 62 °F    
Average Humidity 65    
Maximum Humidity 73    
Minimum Humidity 56    
Precipitation  
Precipitation 0.00 in - - ()
Sea Level Pressure  
Sea Level Pressure 30.10 in    
Wind  
Wind Speed 7 mph (SE)    
Max Wind Speed 14 mph    
Max Gust Speed -    
Visibility 10 miles    
Events      
Averages and records for this station are not official NWS values.
T = Trace of Precipitation, MM = Missing Value Source: NWS Daily Summary

Daily Weather History Graph

Daily Weather History Graph

Search for Another Location

Airport or City:

Trip Planner

Search our weather history database for the weather conditions in past years. The results will help you decide how hot, cold, wet, or windy it might be!

Date:

Astronomy

Feb. 18, 2012 Rise Set
Actual Time 6:51 AM HST 6:25 PM HST
Civil Twilight 6:29 AM HST 6:47 PM HST
Nautical Twilight 6:03 AM HST 7:13 PM HST
Astronomical Twilight 5:37 AM HST 7:38 PM HST
Moon 4:20 AM HST (2/18) 3:49 PM HST (2/18)
Length of Visible Light 12h 18m
Length of Day
11h 33m
Waning Crescent, 10% of the Moon is Illuminated
Feb 18
Waning Crescent
Feb 21
New
Feb 29
First Quarter
Mar 7
Full
Mar 14
Last Quarter

Hourly Weather History & Observations

Time (HST) Temp. Heat Index Dew Point Humidity Pressure Visibility Wind Dir Wind Speed Gust Speed Precip Events Conditions
12:53 AM 73.0 °F - 59.0 °F 61% 30.14 in 10.0 mi NE 8.1 mph - N/A   Mostly Cloudy
1:30 AM 71.6 °F - 60.8 °F 69% 30.12 in 10.0 mi East 5.8 mph - N/A   Mostly Cloudy
1:42 AM 71.6 °F - 60.8 °F 69% 30.12 in 10.0 mi East 3.5 mph - N/A   Mostly Cloudy
1:53 AM 72.0 °F - 60.1 °F 66% 30.12 in 10.0 mi East 4.6 mph - N/A   Mostly Cloudy
2:18 AM 71.6 °F - 60.8 °F 69% 30.11 in 10.0 mi ESE 5.8 mph - N/A   Overcast
2:53 AM 73.0 °F - 62.1 °F 68% 30.11 in 10.0 mi SE 6.9 mph - N/A   Overcast
3:53 AM 72.0 °F - 62.1 °F 71% 30.10 in 10.0 mi ESE 4.6 mph - N/A   Mostly Cloudy
4:53 AM 71.1 °F - 61.0 °F 70% 30.10 in 10.0 mi East 5.8 mph - N/A   Mostly Cloudy
5:53 AM 71.1 °F - 59.0 °F 66% 30.12 in 10.0 mi NE 5.8 mph - N/A   Mostly Cloudy
6:53 AM 71.1 °F - 61.0 °F 70% 30.12 in 10.0 mi East 3.5 mph - N/A   Clear
7:53 AM 72.0 °F - 61.0 °F 68% 30.13 in 10.0 mi ESE 6.9 mph - N/A   Clear
8:53 AM 77.0 °F - 62.1 °F 60% 30.13 in 10.0 mi SSE 4.6 mph - N/A   Clear
9:53 AM 78.1 °F - 62.1 °F 58% 30.14 in 10.0 mi South 12.7 mph - N/A   Clear
10:53 AM 78.1 °F - 64.0 °F 62% 30.13 in 10.0 mi South 13.8 mph - N/A   Clear
11:53 AM 79.0 °F - 63.0 °F 58% 30.12 in 10.0 mi South 11.5 mph - N/A   Clear
12:53 PM 81.0 °F 82.5 °F 64.0 °F 56% 30.09 in 10.0 mi SW 12.7 mph - N/A   Clear
1:53 PM 78.1 °F - 64.0 °F 62% 30.06 in 10.0 mi WSW 9.2 mph - N/A   Clear
2:53 PM 79.0 °F - 64.0 °F 60% 30.05 in 10.0 mi WSW 10.4 mph - N/A   Partly Cloudy
3:53 PM 77.0 °F - 64.0 °F 64% 30.04 in 10.0 mi West 8.1 mph - N/A   Overcast
4:53 PM 78.1 °F - 64.0 °F 62% 30.05 in 10.0 mi WSW 9.2 mph - N/A   Overcast
5:53 PM 77.0 °F - 63.0 °F 62% 30.07 in 10.0 mi WSW 6.9 mph - N/A   Overcast
6:53 PM 75.9 °F - 63.0 °F 64% 30.06 in 10.0 mi Calm Calm - N/A   Mostly Cloudy
7:53 PM 75.9 °F - 59.0 °F 56% 30.07 in 10.0 mi NNW 4.6 mph - N/A   Mostly Cloudy
8:53 PM 73.0 °F - 62.1 °F 68% 30.08 in 10.0 mi ESE 6.9 mph - N/A   Clear
9:53 PM 73.9 °F - 63.0 °F 68% 30.08 in 10.0 mi SE 5.8 mph - N/A   Clear
10:53 PM 72.0 °F - 63.0 °F 73% 30.09 in 10.0 mi ESE 6.9 mph - N/A   Clear
11:53 PM 72.0 °F - 61.0 °F 68% 30.09 in 10.0 mi SE 8.1 mph - N/A   Clear